This is the latest recevied weather packets stored in our database for station/object LA1HSA-13. If no packets are shown the sender has not sent any weather packets the latest 10 day(s).
| Time | Temp. | Humidity | Pressure | Rain* | Wind** | Luminosity | Snow |
|---|---|---|---|---|---|---|---|
| 1777575603 | 15° C | 51% | 1025.2 hPa | 0 mm | - | - | - |
| 1777575004 | 15.56° C | 49% | 1025 hPa | 0 mm | - | - | - |
| 1777574403 | 16.11° C | 47% | 1025.2 hPa | 0 mm | - | - | - |
| 1777573803 | 16.67° C | 45% | 1025.1 hPa | 0 mm | - | - | - |
| 1777573203 | 17.22° C | 44% | 1025 hPa | 0 mm | - | - | - |
| 1777572603 | 17.78° C | 42% | 1025 hPa | 0 mm | - | - | - |
| 1777572003 | 17.78° C | 40% | 1025 hPa | 0 mm | - | - | - |
| 1777571404 | 18.33° C | 39% | 1024.6 hPa | 0 mm | - | - | - |
| 1777570803 | 18.89° C | 37% | 1024.8 hPa | 0 mm | - | - | - |
| 1777570204 | 20° C | 35% | 1025 hPa | 0 mm | - | - | - |
| 1777569604 | 20.56° C | 35% | 1024.9 hPa | 0 mm | - | - | - |
| 1777569003 | 21.11° C | 35% | 1024.7 hPa | 0 mm | - | - | - |
| 1777568404 | 21.67° C | 34% | 1024.9 hPa | 0 mm | - | - | - |
| 1777567804 | 22.22° C | 35% | 1025 hPa | 0 mm | - | - | - |
| 1777567203 | 22.22° C | 38% | 1025 hPa | 0 mm | - | - | - |
| 1777566603 | 22.22° C | 37% | 1024.8 hPa | 0 mm | - | - | - |
| 1777566003 | 22.22° C | 37% | 1025 hPa | 0 mm | - | - | - |
| 1777565403 | 22.22° C | 37% | 1025 hPa | 0 mm | - | - | - |
| 1777564803 | 22.22° C | 36% | 1025.1 hPa | 0 mm | - | - | - |
| 1777564203 | 22.78° C | 37% | 1025 hPa | 0 mm | - | - | - |
| 1777563603 | 22.78° C | 36% | 1025 hPa | 0 mm | - | - | - |
| 1777563004 | 22.78° C | 37% | 1025.1 hPa | 0 mm | - | - | - |
| 1777562403 | 22.78° C | 36% | 1025.1 hPa | 0 mm | - | - | - |
| 1777561803 | 23.33° C | 35% | 1025.1 hPa | 0 mm | - | - | - |
| 1777561203 | 22.78° C | 35% | 1025.2 hPa | 0 mm | - | - | - |
* Rain latest hour (hover to see other rain measurements)
** Current wind speed in m/s (hover to see current wind gust speed)